Regional Weather Roundup
Issued by NWS

Home | Current Version | Previous Version | Text Only | Print | Product List | Glossary Off
Versions: 1 2 3 4 5 6 7 8 9 10 11 12 13 14 15 16 17 18 19 20 21 22 23 24 25 26 27 28 29 30 31 32 33 34 35 36 37 38 39 40 41 42 43 44 45 46 47 48 49 50

000
ASUS45 KSLC 031310
RWRUT

UTAH REGIONAL WEATHER ROUNDUP
NATIONAL WEATHER SERVICE SALT LAKE CITY UT
700 AM MDT SUN MAY 03 2015

UTZ001>011-023>025-031400-

NORTHERN UTAH

CITY           SKY/WX    TMP DP  RH WIND       PRES   REMARKS
BRIGHAM CITY   MOCLDY    60  40  47 CALM      29.88S
HILL AFB       MOCLDY    61  39  44 SE13      29.90S
LOGAN          PTCLDY    52  43  71 NE6       29.89S
OGDEN          CLOUDY    61  42  49 SE6       29.88S
PROVO AIRPORT  PTCLDY    48  36  61 CALM      29.93R
SALT LAKE CITY MOCLDY    59  40  49 SE8       29.89R
VERNAL         CLEAR     46  33  60 SW3       29.97R
WENDOVER       MOCLDY    57  36  44 CALM      29.88R
HEBER CITY     PTCLDY    41  34  75 CALM      29.99R
WEST JORDAN    CLEAR     55  39  54 CALM      29.92R

$$

UTZ012>022-026-027-031400-

SOUTHERN/CENTRAL UTAH

CITY           SKY/WX    TMP DP  RH WIND       PRES   REMARKS
BLANDING       CLOUDY    60  32  34 S6        30.10S
BRYCE CANYON   CLOUDY    40  31  70 SW3       30.10S
CEDAR CITY     PTCLDY    47  29  49 NE3       29.98R
DELTA          CLEAR     54  30  40 SE9       29.92R
HANKSVILLE     CLOUDY    55  28  35 CALM      29.94R
MILFORD        PTCLDY    51  26  37 SW6       29.94R
MOAB/CYNLANDS  CLEAR     63  29  27 E6        29.91R
PRICE          MOCLDY    50  25  37 N8        29.97R
ST GEORGE      MOSUNNY   61  28  29 SE6       29.89R
KANAB          PTCLDY    43  34  70 NE5       30.03R

$$

REGIONAL REPORTS     COLORADO/ARIZONA

CITY           SKY/WX    TMP DP  RH WIND       PRES   REMARKS
CRAIG, CO      MOCLDY    41  37  86 N7        30.02R
GRAND JUNCTION PTCLDY    54  40  59 W6        29.95R
RIFLE          CLEAR     45  37  73 SW3       30.02R
MONTROSE       PTCLDY    54  33  45 SE10      30.02R
CORTEZ         CLOUDY    47  37  68 CALM      30.06R
PAGE, AZ       MOCLDY    63  31  30 S5        29.95R
GRAND CANYON   PTCLDY    38  30  73 E3        30.11R
KINGMAN        PTCLDY    57  33  40 S6        29.91R
FLAGSTAFF      MOCLDY    47  36  65 N3        30.14R

$$

REGIONAL REPORTS    NEVADA/IDAHO/WYOMING

CITY           SKY/WX    TMP DP  RH WIND       PRES   REMARKS
LAS VEGAS, NV  PTCLDY    69  31  24 SW6       29.77R
ELY            PTCLDY    37  21  52 S10       30.00R WCI  30
ELKO           MOCLDY    49  35  58 S3        29.92R
POCATELLO, ID  PTCLDY    47  36  65 N8        29.92R
BURLEY         MOCLDY    44  39  82 E3        29.88R
EVANSTON, WY   LGT RAIN  49  36  61 W10       30.07R
ROCK SPRINGS   MOCLDY    46  38  73 S10       30.02S
KEMMERER       RAIN      50  34  53 SW13G21   30.06R

$$


USA.gov is the U.S. government's official web portal to all federal, state and local government web resources and services.